COSMOS 1800

Satellite information

Favourite Embed

Satellite Type and Status

PAYLOADIN ORBIT

Key statistics

Satellite COSMOS 1800 at a glance.

Uptime

14222

Days in orbit

Revolutions

≈ 12.6

Per day

Orbit

LEO

Low Earth Orbit

Inclination

74.0

Latest

Satellite identification and parameters

Extended collection of information and parameters for COSMOS 1800.

Object identification

Identified? True

Debris? False

Object name: COSMOS 1800

International designator: 1986-092G

Object number (NORAD): 17144

Object ID (CCSDS): 17144

Country: COMMONWEALTH OF INDEPENDENT STATES (CIS)

Current information (Y/N): Y

RCS size: MEDIUM

Orbital parameters

Period: 114.555 minutes

Inclination: 74.0175 deg

SMA: 7813.317 km

Apoapsis: 1471.662 km

Periapsis: 1398.703 km

RAAN: 14.6625 deg

Eccentricy: 0.00466887

Argument of periapsis: 80.392 deg

Mean anomaly: 346.7648 deg

Mean motion: 12.57041363 rev/day

Mean motion (dot): -0.00000006 rev/day2

B* drag term: 0.000060558227 1/REarth

Two-line elements (TLE)

Creation date: Oct. 28, 2025, 7:11 p.m.

Reference frame: TEME

Reference center: EARTH

Epoch: Oct. 28, 2025, 2 p.m. UTC

TLE line 0: 0 COSMOS 1800

TLE line 1: 1 17144U 86092G 25301.58345109 -.00000006 00000-0 60558-4 0 9993

TLE line 2: 2 17144 74.0175 14.6625 0046689 80.3920 346.7648 12.57041363786698

Live tracking on map

Real-time ground track for satellite COSMOS 1800.

In-orbit conjunctions

A list of the most updated potential collisions computed for object COSMOS 1800.

Target Orbit TCA Probability of collision Miss distance Type
ARIANE 42P DEB LEO 2025-02-06 19:20:45 0.0005938089 362.0 (m) DEBRIS

Associated space launch

Military communications satellites

COSMOS 1800 was lifted into orbit during the mission ‘Kosmos-3M | Strela-1M 313-320’, on board a Kosmos-3M space rocket.

The launch took place on Nov. 21, 1986, 2 a.m. from 132/2.

For more information about the launch, click the button.

Launch to space Kosmos-3M | Strela-1M 313-320
Kosmos-3M | Strela-1M 313-320

Agency: N/A

Status: Launch Successful

Launch date: Nov. 21, 1986, 2 a.m. UTC

Rocket: Kosmos-3M

Launch pad: 132/2

Location: Plesetsk Cosmodrome, Russian Federation

...

Latest news about this satellite

There are no fresh news available about this satellite. Check back as we update our databases every day.


Newsletter sign-up

Weekly statistics, charts and insights to help you stay on top of the space industry.